TimePDT,TemperatureF,Dew PointF,Humidity,Sea Level PressureIn,VisibilityMPH,Wind Direction,Wind SpeedMPH,Gust SpeedMPH,PrecipitationIn,Events,Conditions,WindDirDegrees,DateUTC
12:53 AM,34.0,30.9,89,29.99,10.0,SSE,5.8,-,N/A,,Mostly Cloudy,160,2012-10-24 07:53:00
1:53 AM,33.1,30.9,92,29.99,10.0,Calm,Calm,-,N/A,,Mostly Cloudy,0,2012-10-24 08:53:00
2:53 AM,33.1,30.9,92,29.99,10.0,ESE,4.6,-,N/A,,Mostly Cloudy,120,2012-10-24 09:53:00
3:53 AM,32.0,30.0,92,29.99,10.0,Calm,Calm,-,N/A,,Scattered Clouds,0,2012-10-24 10:53:00
4:30 AM,30.2,30.2,100,29.95,3.0,Calm,Calm,-,N/A,,Scattered Clouds,0,2012-10-24 11:30:00
4:41 AM,30.2,30.2,100,29.95,3.0,Calm,Calm,-,N/A,,Scattered Clouds,0,2012-10-24 11:41:00
4:53 AM,30.9,30.0,96,29.99,2.0,NE,3.5,-,N/A,,Scattered Clouds,40,2012-10-24 11:53:00
5:02 AM,30.2,30.2,100,29.94,0.8,NE,5.8,-,N/A,,Mostly Cloudy,40,2012-10-24 12:02:00
5:09 AM,30.2,28.4,93,29.94,0.2,NE,4.6,-,N/A,Fog,Light Freezing Fog,50,2012-10-24 12:09:00
5:53 AM,30.9,30.0,96,30.00,0.1,NE,3.5,-,N/A,Fog,Light Freezing Fog,40,2012-10-24 12:53:00
6:18 AM,30.2,30.2,100,29.95,0.5,Calm,Calm,-,N/A,Fog,Light Freezing Fog,0,2012-10-24 13:18:00
6:28 AM,30.2,30.2,100,29.95,0.8,NE,5.8,-,N/A,,Mostly Cloudy,50,2012-10-24 13:28:00
6:37 AM,30.2,30.2,100,29.95,4.0,ENE,6.9,-,N/A,,Partly Cloudy,60,2012-10-24 13:37:00
6:53 AM,30.9,30.9,100,30.00,2.5,ENE,6.9,-,N/A,,Mostly Cloudy,60,2012-10-24 13:53:00
6:58 AM,32.0,30.2,93,29.95,0.5,ENE,6.9,-,N/A,Fog,Fog,60,2012-10-24 13:58:00
7:07 AM,32.0,30.2,93,29.95,0.2,ENE,8.1,-,N/A,Fog,Fog,60,2012-10-24 14:07:00
7:53 AM,30.9,30.9,100,30.01,0.2,NE,8.1,-,N/A,Fog,Light Freezing Fog,50,2012-10-24 14:53:00
8:53 AM,30.9,30.9,100,30.02,0.2,NE,8.1,-,N/A,Fog,Light Freezing Fog,50,2012-10-24 15:53:00
9:23 AM,32.0,32.0,100,29.96,0.5,NE,9.2,-,N/A,Fog,Fog,40,2012-10-24 16:23:00
9:53 AM,32.0,32.0,100,30.02,0.5,NE,9.2,-,N/A,,Mostly Cloudy,50,2012-10-24 16:53:00
10:25 AM,33.8,33.8,100,29.96,1.0,NE,8.1,-,N/A,,Mostly Cloudy,40,2012-10-24 17:25:00
10:53 AM,35.1,34.0,96,30.01,4.0,NE,8.1,-,N/A,,Mostly Cloudy,50,2012-10-24 17:53:00
11:53 AM,39.0,35.1,86,30.01,10.0,NE,6.9,-,N/A,,Overcast,50,2012-10-24 18:53:00
12:53 PM,42.1,35.1,76,30.01,10.0,East,5.8,-,N/A,,Overcast,90,2012-10-24 19:53:00
1:53 PM,42.8,32.0,66,29.97,10.0,South,5.8,-,N/A,,Overcast,180,2012-10-24 20:53:00
2:53 PM,43.0,33.1,68,30.03,10.0,SE,5.8,-,N/A,,Overcast,130,2012-10-24 21:53:00
3:53 PM,43.0,30.9,62,30.04,10.0,SE,5.8,-,0.00,Rain,Light Rain,130,2012-10-24 22:53:00
4:35 PM,41.0,33.8,76,30.01,7.0,South,8.1,-,0.00,Rain,Light Rain,170,2012-10-24 23:35:00
4:53 PM,39.9,35.1,83,30.06,7.0,South,6.9,-,0.01,Rain,Light Rain,170,2012-10-24 23:53:00
5:53 PM,39.0,35.1,86,30.08,10.0,SSE,3.5,-,0.01,Rain,Light Rain,150,2012-10-25 00:53:00
6:27 PM,39.2,33.8,81,30.03,10.0,SSE,8.1,-,0.00,Rain,Light Rain,150,2012-10-25 01:27:00
6:53 PM,37.9,34.0,86,30.09,5.0,ESE,6.9,-,0.01,Rain,Light Rain,120,2012-10-25 01:53:00
7:53 PM,37.9,36.0,93,30.10,10.0,SSE,4.6,-,0.00,,Overcast,160,2012-10-25 02:53:00
8:13 PM,37.4,35.6,93,30.06,10.0,South,3.5,-,N/A,,Overcast,170,2012-10-25 03:13:00
8:53 PM,37.9,36.0,93,30.12,10.0,Calm,Calm,-,N/A,,Overcast,0,2012-10-25 03:53:00
9:53 PM,37.9,36.0,93,30.13,10.0,Calm,Calm,-,N/A,,Overcast,0,2012-10-25 04:53:00
10:28 PM,37.4,35.6,93,30.08,10.0,Calm,Calm,-,N/A,,Overcast,0,2012-10-25 05:28:00
10:53 PM,37.9,36.0,93,30.14,10.0,Calm,Calm,-,N/A,,Overcast,0,2012-10-25 05:53:00
11:53 PM,37.0,36.0,96,30.16,10.0,West,4.6,-,0.00,,Light Drizzle,280,2012-10-25 06:53:00